User: anonymous   Login
Location: Squirrel Cove
(50.1074°N, 124.9139°W)
Time: 12:37:57
(UTC-07:00)
Language:

CHALLENGEONE - Orbit

View from above orbital plane
View from above orbital plane
View from above satellite
View from above satellite

Ground track
Ground track

The orbit data is extracted from the following two-line orbital elements,

1 47956U 21022AA  22267.20752676  .00005027  00000-0  32828-3 0  9992
2 47956  97.5184 164.5907 0021562 165.6258 194.5588 15.08088807 82665
Epoch (UTC): 24 September 2022 04:58:50
Eccentricity: 0.0021562
inclination: 97.5184°
perigee height: 527 km
apogee height: 557 km
right ascension of ascending node: 164.5907°
argument of perigee: 165.6258°
revolutions per day: 15.08088807
mean anomaly at epoch: 194.5588°
orbit number at epoch: 8266

The dashed part of the orbit path shows where the satellite is in the earth's shadow,  

DLR